Location: Acts Church of Fort Worth
(32.6786°N, 97.2668°W)
Time: 15:54:46
(UTC+00:00)

CZ-3 Stage 3 - Pass Details

Date: 18 January 2026
Orbit: 205 x 9450 km, 30.8° (Epoch: 18 February)

Event Time Altitude Azimuth Distance (km) Brightness Sun altitude
Rises 02:04:13 0° 264° (W) 7,073 8.2 -28.3°
Reaches altitude 10° 02:10:57 10° 264° (W) 4,522 6.9 -29.8°
Enters shadow 02:19:35 58° 241° (WSW) 965 2.6 -31.6°
